Spencer, IA

8:57 AM CDT on October 19, 2017 (GMT -0500)
Spencer Municipal

Weather History for KSPW - December, 2013

Change the Weather History Date:

Monday, December 30, 2013

  Actual Average Record
Temperature  
Mean Temperature 5 °F -  
Max Temperature 14 °F 23 °F 60 °F (2004)
Min Temperature -6 °F 5 °F -20 °F (1973)
Degree Days  
Heating Degree Days 60    
Moisture  
Dew Point -1 °F    
Average Humidity 76    
Maximum Humidity 88    
Minimum Humidity 57    
Precipitation  
Precipitation 0.00 in - - ()
Sea Level Pressure  
Sea Level Pressure 30.17 in    
Wind  
Wind Speed 7 mph (South)    
Max Wind Speed 17 mph    
Max Gust Speed -    
Visibility 6 miles    
Events Snow    
Averages and records for this station are not official NWS values.
T = Trace of Precipitation, MM = Missing Value Source: NWS Daily Summary

Daily Weather History Graph

Daily Weather History Graph

Search for Another Location

Airport or City:

Trip Planner

Search our weather history database for the weather conditions in past years. The results will help you decide how hot, cold, wet, or windy it might be!

Date:

Astronomy

Dec. 30, 2013 Rise Set
Actual Time 7:52 AM CST 4:54 PM CST
Civil Twilight 7:20 AM CST 5:27 PM CST
Nautical Twilight 6:44 AM CST 6:02 PM CST
Astronomical Twilight 6:09 AM CST 6:37 PM CST
Moon 5:42 AM CST (12/30) 3:29 PM CST (12/30)
Length of Visible Light 10h 06m
Length of Day
9h 02m
Waning Crescent, 4% of the Moon is Illuminated
Dec 30
Waning Crescent
Jan 1
New
Jan 7
First Quarter
Jan 15
Full
Jan 23
Last Quarter

Hourly Weather History & Observations

Time (CST) Temp. Windchill Dew Point Humidity Pressure Visibility Wind Dir Wind Speed Gust Speed Precip Events Conditions
12:32 AM -4.0 °F - -11.9 °F 69% 30.23 in 10.0 mi Calm Calm - N/A   Overcast
12:49 AM -2.2 °F - -11.2 °F 66% 30.23 in 10.0 mi Calm Calm - N/A   Overcast
12:53 AM -2.9 °F - -11.9 °F 65% 30.33 in 10.0 mi Calm Calm - N/A   Overcast
1:15 AM -2.9 °F -11.2 °F -11.0 °F 68% 30.21 in 10.0 mi South 3.5 mph - N/A   Overcast
1:53 AM -2.0 °F -13.9 °F -9.9 °F 69% 30.31 in 10.0 mi SSE 5.8 mph - N/A   Mostly Cloudy
2:02 AM -0.9 °F -11.0 °F -9.9 °F 66% 30.20 in 10.0 mi SSE 4.6 mph - N/A   Overcast
2:53 AM -0.9 °F -15.3 °F -9.0 °F 69% 30.30 in 10.0 mi SSE 8.1 mph - N/A   Mostly Cloudy
3:53 AM -0.0 °F -13.0 °F -8.0 °F 69% 30.28 in 10.0 mi SSE 6.9 mph - N/A   Overcast
4:53 AM 1.0 °F -15.8 °F -9.0 °F 63% 30.25 in 10.0 mi SSE 11.5 mph - N/A   Overcast
5:53 AM 1.0 °F -15.8 °F -9.9 °F 60% 30.24 in 10.0 mi SSE 11.5 mph - N/A   Overcast
6:53 AM 1.0 °F -16.6 °F -9.0 °F 63% 30.23 in 10.0 mi SSE 12.7 mph - N/A   Overcast
7:53 AM 3.0 °F -13.3 °F -9.0 °F 57% 30.24 in 8.0 mi SSE 11.5 mph - 0.00 in Snow Light Snow
8:10 AM 3.0 °F -14.1 °F -7.1 °F 63% 30.13 in 1.8 mi SSE 12.7 mph - 0.00 in Snow Light Snow
8:53 AM 3.9 °F -13.7 °F -2.9 °F 73% 30.23 in 1.5 mi SSE 13.8 mph - 0.00 in Snow Light Snow
9:07 AM 3.9 °F -13.0 °F -2.0 °F 76% 30.11 in 1.2 mi SSE 12.7 mph - 0.00 in Snow Light Snow
9:23 AM 5.0 °F -10.8 °F -0.9 °F 76% 30.11 in 0.8 mi SSE 11.5 mph - 0.00 in Snow Light Snow
9:34 AM 5.0 °F -10.8 °F -0.9 °F 76% 30.11 in 1.0 mi SSE 11.5 mph - 0.00 in Snow Light Snow
9:53 AM 6.1 °F -12.8 °F -0.0 °F 76% 30.22 in 1.0 mi SSE 17.3 mph - 0.00 in Snow Light Snow
10:22 AM 7.0 °F -11.6 °F 1.0 °F 77% 30.10 in 2.0 mi SSE 17.3 mph - 0.00 in Snow Light Snow
10:34 AM 7.0 °F -11.0 °F 1.0 °F 77% 30.09 in 4.0 mi SSE 16.1 mph - 0.00 in Snow Light Snow
10:53 AM 8.1 °F -9.0 °F 1.9 °F 76% 30.21 in 4.0 mi SSE 15.0 mph - 0.00 in Snow Light Snow
11:53 AM 9.0 °F -9.0 °F 3.0 °F 77% 30.16 in 10.0 mi SSE 17.3 mph - 0.00 in   Overcast
12:22 PM 10.0 °F -6.5 °F 3.9 °F 76% 30.05 in 8.0 mi South 15.0 mph - N/A   Overcast
12:53 PM 10.9 °F -4.7 °F 5.0 °F 77% 30.14 in 2.0 mi SSE 13.8 mph - 0.00 in Snow Light Snow
1:00 PM 10.9 °F -4.1 °F 6.1 °F 81% 30.04 in 1.0 mi SSE 12.7 mph - 0.00 in Snow Light Snow
1:02 PM 10.9 °F -4.1 °F 6.1 °F 81% 30.04 in 0.8 mi SSE 12.7 mph - 0.00 in Snow Light Snow
1:14 PM 10.9 °F -1.8 °F 6.1 °F 81% 30.03 in 1.0 mi SSE 9.2 mph - 0.00 in Snow Light Snow
1:26 PM 12.0 °F -1.3 °F 7.0 °F 80% 30.03 in 1.2 mi SSE 10.4 mph - 0.00 in Snow Light Snow
1:44 PM 12.9 °F -0.2 °F 6.1 °F 74% 30.03 in 2.5 mi South 10.4 mph - 0.00 in Snow Light Snow
1:53 PM 12.9 °F -0.9 °F 7.0 °F 77% 30.12 in 1.8 mi South 11.5 mph - 0.00 in Snow Light Snow
2:39 PM 12.9 °F 2.6 °F 7.0 °F 77% 30.04 in 3.0 mi South 6.9 mph - 0.00 in Snow Light Snow
2:53 PM 12.9 °F 2.6 °F 7.0 °F 77% 30.14 in 5.0 mi South 6.9 mph - 0.00 in Snow Light Snow
3:31 PM 12.9 °F 5.2 °F 7.0 °F 77% 30.06 in 2.5 mi South 4.6 mph - 0.00 in Snow Light Snow
3:48 PM 12.2 °F 2.9 °F 8.6 °F 85% 30.06 in 1.2 mi South 5.8 mph - 0.00 in Snow Light Snow
3:53 PM 12.9 °F 5.2 °F 8.1 °F 81% 30.15 in 1.2 mi South 4.6 mph - 0.00 in Snow Light Snow
4:09 PM 12.9 °F - 8.1 °F 81% 30.06 in 3.0 mi Calm Calm - 0.00 in Snow Light Snow
4:53 PM 14.0 °F - 8.1 °F 77% 30.18 in 6.0 mi Calm Calm - 0.00 in Snow Light Snow
5:22 PM 14.0 °F 8.2 °F 9.0 °F 80% 30.11 in 5.0 mi NW 3.5 mph - 0.00 in Snow Light Snow
5:53 PM 12.0 °F 5.9 °F 8.1 °F 84% 30.21 in 5.0 mi NW 3.5 mph - 0.00 in Snow Light Snow
6:40 PM 3.0 °F -9.3 °F -0.0 °F 87% 30.14 in 7.0 mi NW 6.9 mph - 0.00 in   Mostly Cloudy
6:53 PM 1.0 °F -12.9 °F -2.0 °F 87% 30.26 in 10.0 mi WNW 8.1 mph - 0.00 in   Mostly Cloudy
7:08 PM 3.9 °F -8.2 °F 1.0 °F 88% 30.16 in 9.0 mi WNW 6.9 mph - N/A   Mostly Cloudy
7:29 PM 3.9 °F -10.4 °F -0.0 °F 84% 30.16 in 10.0 mi NW 9.2 mph - N/A   Scattered Clouds
7:53 PM 1.9 °F -10.6 °F -2.9 °F 80% 30.27 in 10.0 mi NW 6.9 mph - N/A   Clear
8:53 PM 1.9 °F -10.6 °F -2.0 °F 83% 30.29 in 10.0 mi NW 6.9 mph - N/A   Clear
9:53 PM -2.0 °F -15.4 °F -6.0 °F 83% 30.32 in 10.0 mi NW 6.9 mph - N/A   Clear
10:53 PM -2.0 °F -16.6 °F -7.1 °F 79% 30.32 in 10.0 mi WNW 8.1 mph - N/A   Clear
11:53 PM -6.0 °F -21.5 °F -11.0 °F 79% 30.32 in 10.0 mi West 8.1 mph - N/A   Clear